Weather History for Fort Leonard Wood, MO

Change the Weather History Date:

Monday, May 20, 2013

  Actual Average Record
Temperature  
Mean Temperature 68 °F -  
Max Temperature 75 °F 74 °F 91 °F (1998)
Min Temperature 60 °F 56 °F 44 °F (2002)
Cooling Degree Days 2    
Growing Degree Days 18 (Base 50)    
Moisture  
Dew Point 65 °F    
Average Humidity 94    
Maximum Humidity 100    
Minimum Humidity 68    
Precipitation  
Precipitation 0.85 in - - ()
Sea Level Pressure  
Sea Level Pressure 29.82 in    
Wind  
Wind Speed 9 mph (SSE)    
Max Wind Speed 15 mph    
Max Gust Speed 32 mph    
Visibility 8 miles    
Events Rain , Thunderstorm    
Averages and records for this station are not official NWS values.
T = Trace of Precipitation, MM = Missing Value Source: NWS Daily Summary

Daily Weather History Graph

Daily Weather History Graph

Search for Another Location

Airport:

Trip Planner

Search our weather history database for the weather conditions in past years. The results will help you decide how hot, cold, wet, or windy it might be!

Date:

Astronomy

May. 20, 2013 Rise Set
Actual Time 5:54 AM CDT 8:15 PM CDT
Civil Twilight 5:24 AM CDT 8:45 PM CDT
Nautical Twilight 4:48 AM CDT 9:22 PM CDT
Astronomical Twilight 4:07 AM CDT 10:03 PM CDT
Moon 3:28 PM CDT (5/20) 2:44 AM CDT (5/20)
Length of Visible Light 15h 20m
Length of Day
14h 21m
Waxing Gibbous, 75% of the Moon is Illuminated
May 20
Waxing Gibbous
May 24
Full
May 31
Last Quarter
Jun 8
New
Jun 16
First Quarter

Hourly Weather History & Observations

Time (CDT) Temp. Dew Point Humidity Pressure Visibility Wind Dir Wind Speed Gust Speed Precip Events Conditions
12:58 AM 75.2 °F 69.1 °F 81% 29.75 in 6.0 mi SSE 11.5 mph 19.6 mph N/A   Haze
1:58 AM 74.5 °F 69.3 °F 84% 29.77 in 9.0 mi South 9.2 mph - N/A   Mostly Cloudy
2:37 AM 69.8 °F 59.0 °F 68% 29.85 in 10.0 mi WNW 15.0 mph 32.2 mph N/A   Light Drizzle
2:47 AM 64.4 °F 60.8 °F 88% 29.87 in 6.0 mi WNW 12.7 mph 29.9 mph N/A Rain , Thunderstorm Thunderstorms and Rain
2:52 AM 62.6 °F 60.8 °F 94% 29.86 in 2.0 mi WNW 9.2 mph 21.9 mph N/A Rain , Thunderstorm Heavy Thunderstorms and Rain
2:57 AM 60.8 °F 60.8 °F 100% 29.85 in 1.5 mi Variable 4.6 mph - N/A Rain , Thunderstorm Heavy Thunderstorms and Rain
2:58 AM 61.0 °F 60.4 °F 98% 29.83 in 1.5 mi Variable 4.6 mph - 0.16 in Rain , Thunderstorm Heavy Thunderstorms and Rain
3:03 AM 60.8 °F 60.8 °F 100% 29.86 in 2.5 mi Variable 3.5 mph - N/A Rain , Thunderstorm Light Thunderstorms and Rain
3:08 AM 60.8 °F 60.8 °F 100% 29.85 in 5.0 mi NNW 3.5 mph - N/A Rain , Thunderstorm Light Thunderstorms and Rain
3:15 AM 60.8 °F 60.8 °F 100% 29.85 in 10.0 mi North 2.3 mph - N/A Thunderstorm Thunderstorm
3:18 AM 60.8 °F 60.8 °F 100% 29.84 in 10.0 mi North 3.5 mph - N/A   Overcast
3:58 AM 60.6 °F 60.6 °F 100% 29.81 in 10.0 mi ESE 6.9 mph - 0.03 in   Mostly Cloudy
4:58 AM 60.4 °F 60.4 °F 100% 29.84 in 10.0 mi Variable 2.3 mph - N/A   Overcast
5:00 AM 60.8 °F 60.8 °F 100% 29.84 in 10.0 mi ESE 6.9 mph - N/A Rain Light Rain
5:32 AM 60.8 °F 60.8 °F 100% 29.92 in 9.0 mi Variable 2.3 mph - N/A Rain , Thunderstorm Light Thunderstorms and Rain
5:47 AM 60.8 °F 60.8 °F 100% 29.90 in 10.0 mi ENE 1.2 mph - N/A Thunderstorm Light Drizzle
5:50 AM 60.8 °F 60.8 °F 100% 29.89 in 10.0 mi NE 1.2 mph - N/A   Overcast
5:58 AM 60.4 °F 60.4 °F 100% 29.89 in 10.0 mi ESE 2.3 mph - 0.02 in   Mostly Cloudy
6:02 AM 60.8 °F 60.8 °F 100% 29.90 in 10.0 mi ESE 5.8 mph - N/A Thunderstorm Thunderstorm
6:13 AM 60.8 °F 60.8 °F 100% 29.89 in 9.0 mi ESE 4.6 mph - N/A Rain , Thunderstorm Light Thunderstorms and Rain
6:17 AM 60.8 °F 60.8 °F 100% 29.89 in 7.0 mi ESE 9.2 mph - N/A Rain Light Rain
6:30 AM 60.8 °F 60.8 °F 100% 29.88 in 10.0 mi ESE 8.1 mph - N/A   Mostly Cloudy
6:58 AM 60.8 °F 60.8 °F 100% 29.86 in 10.0 mi SE 9.2 mph - 0.02 in   Mostly Cloudy
7:58 AM 61.7 °F 61.7 °F 100% 29.88 in 10.0 mi SE 6.9 mph - N/A   Overcast
8:35 AM 62.6 °F 62.6 °F 100% 29.89 in 10.0 mi SE 9.2 mph - N/A Rain Light Rain
8:47 AM 62.6 °F 62.6 °F 100% 29.89 in 10.0 mi SSE 10.4 mph - N/A   Overcast
8:58 AM 63.0 °F 63.0 °F 100% 29.87 in 10.0 mi SE 12.7 mph - 0.01 in   Overcast
8:59 AM 62.6 °F 62.6 °F 100% 29.88 in 10.0 mi SSE 11.5 mph - N/A Rain Light Rain
9:13 AM 64.4 °F 64.4 °F 100% 29.87 in 10.0 mi SE 10.4 mph - N/A   Mostly Cloudy
9:58 AM 65.7 °F 63.5 °F 93% 29.84 in 10.0 mi SE 15.0 mph - 0.00 in   Overcast
10:58 AM 66.2 °F 63.5 °F 91% 29.86 in 10.0 mi SE 11.5 mph - N/A   Overcast
11:03 AM 66.2 °F 64.4 °F 94% 29.87 in 10.0 mi SE 13.8 mph - N/A   Overcast
11:38 AM 69.8 °F 64.4 °F 83% 29.87 in 10.0 mi SE 12.7 mph - N/A   Mostly Cloudy
11:58 AM 68.9 °F 63.7 °F 83% 29.86 in 10.0 mi SE 8.1 mph - N/A   Mostly Cloudy
1:58 PM 71.8 °F 67.6 °F 87% 29.83 in 10.0 mi SSE 10.4 mph - N/A   Mostly Cloudy
2:58 PM 74.7 °F 69.4 °F 84% 29.83 in 10.0 mi South 6.9 mph - N/A   Mostly Cloudy
3:03 PM 75.2 °F 69.8 °F 83% 29.84 in 10.0 mi South 9.2 mph 16.1 mph N/A   Overcast
3:58 PM 74.7 °F 70.2 °F 86% 29.79 in 10.0 mi South 10.4 mph 18.4 mph N/A   Overcast
4:38 PM 73.4 °F 69.8 °F 88% 29.77 in 10.0 mi SSE 8.1 mph - N/A   Overcast
4:43 PM 73.4 °F 69.8 °F 88% 29.77 in 10.0 mi SE 9.2 mph - N/A   Overcast
4:48 PM 73.4 °F 69.8 °F 88% 29.76 in 10.0 mi SE 10.4 mph - N/A   Overcast
4:53 PM 73.4 °F 69.8 °F 88% 29.75 in 10.0 mi SE 11.5 mph - N/A   Overcast
4:58 PM 73.6 °F 70.3 °F 90% 29.74 in 10.0 mi SSE 11.5 mph - N/A   Overcast
5:58 PM 74.1 °F 70.7 °F 89% 29.73 in 10.0 mi SSE 12.7 mph - N/A   Overcast
6:58 PM 74.3 °F 70.3 °F 87% 29.73 in 10.0 mi South 11.5 mph - N/A   Overcast
7:58 PM 74.3 °F 70.5 °F 88% 29.73 in 10.0 mi South 8.1 mph - N/A   Overcast
8:25 PM 73.4 °F 69.8 °F 88% 29.74 in 10.0 mi SSE 8.1 mph - N/A Rain Light Rain
8:36 PM 73.4 °F 69.8 °F 88% 29.76 in 10.0 mi Variable 5.8 mph - N/A Thunderstorm Overcast
8:39 PM 73.4 °F 71.6 °F 94% 29.78 in 10.0 mi West 10.4 mph - N/A Thunderstorm Thunderstorm
8:41 PM 73.4 °F 71.6 °F 94% 29.79 in 9.0 mi West 13.8 mph 23.0 mph N/A Rain , Thunderstorm Light Thunderstorms and Rain
8:51 PM 69.8 °F 66.2 °F 88% 29.80 in 3.0 mi WSW 15.0 mph 29.9 mph N/A Rain , Thunderstorm Heavy Thunderstorms and Rain
8:56 PM 66.2 °F 64.4 °F 94% 29.79 in 1.8 mi WSW 13.8 mph 26.5 mph N/A Rain , Thunderstorm Heavy Thunderstorms and Rain
8:58 PM 66.6 °F 65.1 °F 95% 29.78 in 1.8 mi WSW 13.8 mph 26.5 mph 0.15 in Rain , Thunderstorm Heavy Thunderstorms and Rain
9:18 PM 64.4 °F 64.4 °F 100% 29.79 in 2.5 mi SW 9.2 mph 18.4 mph N/A Rain , Thunderstorm Thunderstorms and Rain
9:23 PM 64.4 °F 64.4 °F 100% 29.79 in 4.0 mi Variable 6.9 mph 17.3 mph N/A Rain , Thunderstorm Thunderstorms and Rain
9:58 PM 64.2 °F 64.2 °F 100% 29.81 in 8.0 mi South 9.2 mph 24.2 mph 0.45 in Rain , Thunderstorm Light Thunderstorms and Rain
10:04 PM 64.4 °F 64.4 °F 100% 29.78 in 10.0 mi Variable 5.8 mph 16.1 mph N/A Rain , Thunderstorm Light Rain
10:07 PM 64.4 °F 64.4 °F 100% 29.77 in 10.0 mi SSE 5.8 mph - N/A Rain , Thunderstorm Light Thunderstorms and Rain
10:22 PM 64.4 °F 64.4 °F 100% 29.77 in 10.0 mi SSE 11.5 mph - N/A Rain , Thunderstorm Light Rain
10:34 PM 64.4 °F 64.4 °F 100% 29.77 in 10.0 mi SSE 6.9 mph - N/A   Mostly Cloudy
10:58 PM 63.5 °F 63.0 °F 98% 29.77 in 10.0 mi South 5.8 mph - 0.01 in   Partly Cloudy
11:58 PM 64.2 °F 61.7 °F 91% 29.77 in 10.0 mi South 10.4 mph 17.3 mph N/A   Scattered Clouds